Quebec, Canada

11:17 PM EDT on August 30, 2016 (GMT -0400)
Quebec-Lesage International

Weather History for CYQB - March, 2013

Change the Weather History Date:

Wednesday, March 13, 2013

  Actual Average Record
Temperature  
Mean Temperature 35 °F -  
Max Temperature 40 °F 26 °F 42 °F (2016)
Min Temperature 30 °F 11 °F -7 °F (2003)
Degree Days  
Heating Degree Days 30    
Moisture  
Dew Point 31 °F    
Average Humidity 87    
Maximum Humidity 100    
Minimum Humidity 54    
Precipitation  
Precipitation 0.00 in - - ()
Sea Level Pressure  
Sea Level Pressure 29.73 in    
Wind  
Wind Speed 12 mph ()    
Max Wind Speed 21 mph    
Max Gust Speed 24 mph    
Visibility 7.3 miles    
Events Rain , Snow    
Averages and records for this station are not official NWS values.
T = Trace of Precipitation, MM = Missing Value Source: Averaged Metar Reports

Daily Weather History Graph

Daily Weather History Graph

Search for Another Location

Airport or City:

Trip Planner

Search our weather history database for the weather conditions in past years. The results will help you decide how hot, cold, wet, or windy it might be!

Date:

Astronomy

Mar. 13, 2013 Rise Set
Actual Time 7:01 AM EDT 6:48 PM EDT
Civil Twilight 6:31 AM EDT 7:19 PM EDT
Nautical Twilight 5:56 AM EDT 7:54 PM EDT
Astronomical Twilight 5:20 AM EDT 8:30 PM EDT
Moon 7:30 AM EDT (3/13) 9:13 PM EDT (3/13)
Length of Visible Light 12h 47m
Length of Day
11h 46m
Waxing Crescent, 4% of the Moon is Illuminated
Mar 13
Waxing Crescent
Mar 19
First Quarter
Mar 27
Full
Apr 3
Last Quarter
Apr 10
New

Hourly Weather History & Observations

Time (EDT) Temp. Windchill Dew Point Humidity Pressure Visibility Wind Dir Wind Speed Gust Speed Precip Events Conditions
12:00 AM 35.6 °F 24.5 °F 35.6 °F 100% 29.73 in 3.0 mi SW 20.7 mph - N/A Rain Light Rain
12:48 AM 35.6 °F 25.2 °F - N/A% - 3.0 mi SW 18.4 mph - N/A Rain Light Rain
1:00 AM 35.6 °F 25.5 °F 35.6 °F 100% 29.74 in 3.0 mi SW 17.3 mph - N/A Rain Light Rain
2:00 AM 35 °F - 35 °F 97% 29.74 in - WSW 8.1 mph - -  
2:00 AM 35.6 °F 26.6 °F 33.8 °F 93% 29.75 in 5.0 mi SW 13.8 mph - N/A Rain Light Rain
3:00 AM 35.6 °F 25.9 °F 33.8 °F 93% 29.75 in 6.0 mi SW 16.1 mph - N/A Rain Light Rain
4:00 AM 33.8 °F 23.5 °F 33.8 °F 100% 29.75 in 6.0 mi WSW 16.1 mph - N/A Rain Light Rain
4:47 AM 33.8 °F 24.8 °F - N/A% - 6.0 mi WSW 12.7 mph - N/A   Overcast
5:00 AM 35 °F - 34 °F 94% 29.75 in - SW 8.1 mph - -  
5:00 AM 33.8 °F 25.3 °F 33.8 °F 100% 29.76 in 6.0 mi WSW 11.5 mph - N/A   Overcast
5:43 AM 33.8 °F 23.9 °F - N/A% - 3.0 mi SW 15.0 mph - N/A   Overcast
6:00 AM 33.8 °F 23.5 °F 33.8 °F 100% 29.77 in 3.0 mi WSW 16.1 mph - N/A   Overcast
6:45 AM 33.8 °F 26.4 °F - N/A% - 2.5 mi WSW 9.2 mph - N/A   Overcast
7:00 AM 33.8 °F 26.4 °F 33.8 °F 100% 29.77 in 1.8 mi WSW 9.2 mph - N/A   Overcast
8:00 AM 35 °F - 34 °F 93% 29.76 in - WSW 9.2 mph - -  
8:00 AM 33.8 °F 24.3 °F 33.8 °F 100% 29.77 in 1.5 mi WSW 13.8 mph 19.6 mph N/A   Overcast
8:37 AM 33.8 °F 25.3 °F - N/A% - 1.8 mi WSW 11.5 mph - N/A   Overcast
9:00 AM 33.8 °F 24.8 °F 33.8 °F 100% 29.77 in 1.5 mi WSW 12.7 mph - N/A   Overcast
9:32 AM 33.8 °F 24.3 °F - N/A% - 1.8 mi SW 13.8 mph - N/A   Overcast
10:00 AM 33.8 °F 26.4 °F 33.8 °F 100% 29.76 in 1.5 mi SW 9.2 mph - N/A   Overcast
11:00 AM 35 °F - 34 °F 92% 29.74 in - WSW 8.1 mph - -  
11:00 AM 35.6 °F 27.1 °F 33.8 °F 93% 29.75 in 3.0 mi SW 12.7 mph - N/A   Overcast
11:45 AM 35.6 °F 28.6 °F - N/A% - 5.0 mi WSW 9.2 mph - N/A   Overcast
12:00 PM 35.6 °F 27.5 °F 32.0 °F 87% 29.75 in 7.0 mi WSW 11.5 mph - N/A   Overcast
12:23 PM 35.6 °F 28.0 °F - N/A% - 9.0 mi West 10.4 mph - N/A   Overcast
1:00 PM 37.4 °F 30.3 °F 32.0 °F 81% 29.74 in 15.0 mi WSW 10.4 mph - N/A   Mostly Cloudy
2:00 PM 40 °F - 29 °F 54% 29.70 in - WSW 8.1 mph - -  
2:00 PM 39.2 °F 31.2 °F 28.4 °F 65% 29.72 in 15.0 mi WSW 13.8 mph - N/A   Mostly Cloudy
3:00 PM 39.2 °F 30.8 °F 24.8 °F 56% 29.70 in 15.0 mi WSW 15.0 mph - N/A   Scattered Clouds
4:00 PM 39.2 °F 30.2 °F 24.8 °F 56% 29.70 in 15.0 mi SW 17.3 mph - N/A   Mostly Cloudy
5:00 PM 37 °F - 27 °F 57% 29.69 in - WSW 11.5 mph - -  
5:00 PM 37.4 °F 27.8 °F 26.6 °F 65% 29.71 in 15.0 mi WSW 17.3 mph - N/A   Overcast
5:52 PM 35.6 °F 25.2 °F - N/A% - 6.0 mi WSW 18.4 mph 24.2 mph N/A Snow Light Snow
6:00 PM 35.6 °F 25.2 °F 30.2 °F 81% 29.72 in 4.0 mi WSW 18.4 mph 24.2 mph N/A Snow Light Snow
7:00 PM 33.8 °F 26.4 °F 30.2 °F 87% 29.72 in 15.0 mi SW 9.2 mph - N/A   Overcast
8:00 PM 33 °F - 31 °F 87% 29.70 in - WSW 6.9 mph - -  
8:00 PM 33.8 °F 26.4 °F 30.2 °F 87% 29.72 in 15.0 mi WSW 9.2 mph - N/A   Overcast
9:00 PM 32.0 °F 24.8 °F 30.2 °F 93% 29.71 in 15.0 mi West 8.1 mph - N/A   Overcast
10:00 PM 32.0 °F 25.6 °F 28.4 °F 87% 29.70 in 15.0 mi WSW 6.9 mph - N/A   Partly Cloudy
11:00 PM 30 °F - 28 °F 89% 29.69 in - NW 3.5 mph - -  
11:00 PM 30.2 °F 22.6 °F 28.4 °F 93% 29.70 in 15.0 mi WSW 8.1 mph - N/A   Scattered Clouds